Location: Montbazon
(47.2835°N, 0.6999°E)
Time: 00:38:09
(UTC+00:00)

Gbstr 26 Del rocket - Pass Details

Date: 08 November 2025
Orbit: 489 x 1219 km, 51.8° (Epoch: 13 December)

Event Time Altitude Azimuth Distance (km) Brightness Sun altitude
Exits shadow 03:58:38 44° 136° (SE) 987 4.2 -29.4°
Drops below altitude 10° 04:03:49 10° 70° (ENE) 2,435 7.0 -28.5°
Sets 04:06:41 0° 64° (ENE) 3,507 8.0 -28.0°
